Location: Boleita
(10.4833°N, 66.8167°W)
Time: 01:32:33
(UTC+00:00)

ARIANE 5 R/B - Pass Details

Date: 08 November 2025
Orbit: 538 x 17402 km, 6.8° (Epoch: 09 December)

Event Time Altitude Azimuth Distance (km) Brightness Sun altitude
Exits shadow 08:24:24 46° 164° (SSE) 932 2.5 -28.3°
Drops below altitude 10° 08:27:15 10° 113° (ESE) 1,827 4.9 -27.7°
Sets 08:29:03 0° 106° (ESE) 2,663 6.1 -27.2°
